This demonstration page uses our WeatherBlox Daily Observations layout. Learn more.

40.92945, -100.16068

Hourly Observations for April 14, 2017

Temp ( °F °C ) Dew Point ( °F °C ) Humidity (%) Winds ( mph kmh ) Pressure ( in mb ) Visibility ( mi km ) Precip ( " mm )
12:15 am 00:15 Cloudy 57 14 50 10 77 77 SSE 12 19 29.97 1015 10 16.0934 0 0
12:35 am 00:35 Mostly Cloudy 56 13.1 50 10 82 82 SSE 10 17 29.94 1014 10 16.0934 0 0
12:55 am 00:55 Partly Cloudy 55 12.8 50 10 83 83 SSE 9 15 29.97 1015 10 16.0934 0 0
1:15 am 01:15 Partly Cloudy 55 13 50 10 82 82 SSE 9 15 29.94 1014 10 16.0934 0 0
1:35 am 01:35 Partly Cloudy 55 12.9 50 10 83 83 SSE 12 19 29.94 1014 10 16.0934 0 0
1:55 am 01:55 Cloudy 55 13 50 10.2 83 83 SSE 12 19 29.94 1014 10 16.0934 0 0
2:15 am 02:15 Cloudy 55 12.9 51 10.5 85 85 SSE 12 19 29.91 1013 10 16.0934 0 0
2:35 am 02:35 Cloudy 56 13.5 53 11.5 88 88 SSE 12 19 29.91 1013 10 16.0934 0 0
2:55 am 02:55 Cloudy 56 13.5 53 11.6 88 88 SSE 12 19 29.88 1012 10 16.0934 0 0
3:15 am 03:15 Cloudy 56 13.6 53 11.8 89 89 SSE 13 20 29.88 1012 10 16.0934 0 0
3:35 am 03:35 Cloudy 57 13.8 54 12 89 89 SSE 13 20 29.88 1012 10 16.0934 0 0
3:55 am 03:55 Cloudy 57 13.8 54 12.1 90 90 SSE 12 19 29.88 1012 10 16.0934 0 0
4:15 am 04:15 Cloudy 57 13.8 54 12.3 91 91 SSE 13 20 29.85 1011 10 16.0934 0 0
4:35 am 04:35 Cloudy 57 14 55 12.6 91 91 SSE 15 24 29.85 1011 10 16.0934 0 0
4:55 am 04:55 Cloudy 58 14.3 55 12.8 91 91 SSE 15 24 29.85 1011 10 16.0934 0 0
5:15 am 05:15 Cloudy 58 14.3 55 12.9 91 91 SSE 17 28 29.85 1011 10 16.0934 0 0
5:35 am 05:35 Cloudy 57 14.1 55 12.5 90 90 SSE 14 22 29.83 1010 10 16.0934 0 0
5:55 am 05:55 Cloudy 57 14 54 12.1 88 88 SSE 15 24 29.83 1010 10 16.0934 0 0
6:15 am 06:15 Cloudy with Nearby Thunderstorms 56 13.6 53 11.5 87 87 SSE 14 22 29.83 1010 10 16.0934 0 0
6:35 am 06:35 Cloudy 56 13.2 51 10.8 86 86 SSE 12 19 29.83 1010 10 16.0934 0 0
6:55 am 06:55 Cloudy 56 13.2 51 10.8 86 86 SSE 14 22 29.83 1010 10 16.0934 0 0
7:15 am 07:15 Cloudy with Mist and Fog 56 13.5 54 12 91 91 SE 16 26 29.83 1010 5 8.0467 0 0
7:35 am 07:35 Cloudy with Mist and Fog 56 13.5 54 12.3 93 93 SE 15 24 29.83 1010 2.5 4.02335 0 0
7:55 am 07:55 Cloudy with Mist and Fog 56 13.4 54 12.2 93 93 SE 14 22 29.83 1010 2 3.21868 0 0
8:15 am 08:15 Cloudy with Light Rain 56 13.5 55 12.5 94 94 SE 14 22 29.8 1009 2 3.21868 0 0
8:35 am 08:35 Cloudy with Mist and Fog 57 13.7 55 12.7 94 94 SSE 15 24 29.8 1009 5 8.0467 0 0
8:55 am 08:55 Cloudy with Mist and Fog 57 13.8 55 12.8 94 94 SE 14 22 29.8 1009 5 8.0467 0 0
9:15 am 09:15 Cloudy with Mist and Fog 57 13.8 55 12.8 94 94 SE 15 24 29.8 1009 4 6.43736 0 0
9:35 am 09:35 Cloudy with Mist and Fog 57 14 55 13 94 94 SE 15 24 29.8 1009 3 4.82802 0 0
9:55 am 09:55 Cloudy with Mist and Fog 58 14.2 56 13.4 95 95 SSE 16 26 29.8 1009 3 4.82802 0 0
10:15 am 10:15 Cloudy with Mist and Fog 58 14.5 56 13.5 94 94 SSE 16 26 29.74 1007 3 4.82802 0 0
10:35 am 10:35 Cloudy with Mist and Fog 58 14.6 57 13.7 94 94 SSE 15 24 29.74 1007 4 6.43736 0 0
10:55 am 10:55 Cloudy with Mist and Fog 59 14.8 57 14 95 95 SSE 16 26 29.74 1007 4 6.43736 0 0
11:15 am 11:15 Cloudy with Mist and Fog 59 15 57 14.1 94 94 SSE 13 20 29.74 1007 4 6.43736 0 0
11:35 am 11:35 Cloudy with Mist and Fog 60 15.4 58 14.4 94 94 SSE 12 19 29.74 1007 5 8.0467 0 0
11:55 am 11:55 Cloudy 61 16.2 59 14.8 91 91 SSE 14 22 29.71 1006 7 11.26538 0 0
12:15 pm 12:15 Cloudy 63 17.1 59 15.1 88 88 S 13 20 29.71 1006 10 16.0934 0 0
12:35 pm 12:35 Cloudy 65 18.3 60 15.6 84 84 SSE 14 22 29.68 1005 10 16.0934 0 0
12:55 pm 12:55 Cloudy 67 19.5 60 15.3 77 77 S 16 26 29.65 1004 10 16.0934 0 0
1:15 pm 13:15 Cloudy 68 19.9 59 15.2 74 74 SSE 16 26 29.65 1004 10 16.0934 0 0
1:35 pm 13:35 Cloudy 68 20.1 59 15.2 74 74 S 14 22 29.65 1004 10 16.0934 0 0
1:55 pm 13:55 Cloudy 69 20.4 60 15.3 73 73 S 12 19 29.65 1004 10 16.0934 0 0
2:15 pm 14:15 Cloudy 71 21.5 60 15.6 69 69 S 13 20 29.59 1002 10 16.0934 0 0
2:35 pm 14:35 Cloudy 73 22.9 61 16.3 66 66 S 12 19 29.59 1002 10 16.0934 0 0
2:55 pm 14:55 Mostly Cloudy 75 23.9 61 16.2 62 62 S 9 15 29.56 1001 10 16.0934 0 0
3:15 pm 15:15 Mostly Cloudy 78 25.4 59 15 53 53 S 16 26 29.56 1001 10 16.0934 0 0
3:35 pm 15:35 Partly Cloudy 79 26.2 58 14.7 49 49 S 16 26 29.56 1001 10 16.0934 0 0
3:55 pm 15:55 Partly Cloudy 82 27.6 57 13.7 42 42 SSW 16 26 29.53 1000 10 16.0934 0 0
4:15 pm 16:15 Sunny 83 28.1 53 11.4 35 35 SSW 14 22 29.5 999 10 16.0934 0 0
4:35 pm 16:35 Partly Cloudy 83 28.5 55 12.6 37 37 S 16 26 29.5 999 10 16.0934 0 0
4:55 pm 16:55 Partly Cloudy 83 28.5 56 13.6 40 40 SSW 17 28 29.5 999 10 16.0934 0 0
5:15 pm 17:15 Partly Cloudy 83 28.5 57 13.7 40 40 S 16 26 29.5 999 10 16.0934 0 0
5:35 pm 17:35 Partly Cloudy 83 28.5 56 13.2 39 39 S 20 31 29.5 999 10 16.0934 0 0
5:55 pm 17:55 Partly Cloudy 83 28.5 57 13.8 41 41 SSE 18 30 29.5 999 10 16.0934 0 0
6:15 pm 18:15 Sunny 83 28.3 56 13.5 40 40 SSE 16 26 29.5 999 10 16.0934 0 0
6:35 pm 18:35 Sunny 82 28 58 14.4 43 43 SE 16 26 29.47 998 10 16.0934 0 0
6:55 pm 18:55 Partly Cloudy 79 26.3 58 14.3 48 48 SE 15 24 29.5 999 10 16.0934 0 0
7:15 pm 19:15 Partly Cloudy with Light Rain 78 25.8 58 14.5 50 50 SE 12 19 29.5 999 10 16.0934 0 0
7:35 pm 19:35 Mostly Cloudy 76 24.3 60 15.4 58 58 ESE 7 11 29.5 999 10 16.0934 0 0
7:55 pm 19:55 Partly Cloudy 76 24.7 57 14 51 51 S 7 11 29.5 999 10 16.0934 0 0
8:15 pm 20:15 Mostly Cloudy with Nearby Thunderstorms 72 22.1 60 15.6 67 67 NNE 20 31 29.53 1000 10 16.0934 0 0
8:35 pm 20:35 Cloudy 71 21.7 60 15.3 67 67 N 12 19 29.53 1000 10 16.0934 0 0
8:55 pm 20:55 Partly Cloudy 73 22.9 59 15 61 61 NNW 3 6 29.53 1000 10 16.0934 0 0
9:15 pm 21:15 Clear 75 24.1 59 14.8 56 56 S 16 26 29.5 999 10 16.0934 0 0
9:35 pm 21:35 Clear 74 23.1 59 14.9 60 60 S 12 19 29.53 1000 10 16.0934 0 0
9:55 pm 21:55 Clear 73 22.5 59 15 63 63 S 8 13 29.56 1001 10 16.0934 0 0
10:15 pm 22:15 Clear 72 22.4 59 15 63 63 S 14 22 29.56 1001 10 16.0934 0 0
10:35 pm 22:35 Clear 71 21.6 59 15 66 66 S 10 17 29.56 1001 10 16.0934 0 0
10:55 pm 22:55 Clear 71 21.6 59 14.8 65 65 S 15 24 29.56 1001 10 16.0934 0 0
11:15 pm 23:15 Clear 71 21.4 58 14.5 65 65 S 20 31 29.56 1001 10 16.0934 0 0
11:35 pm 23:35 Clear 71 21.5 58 14.2 63 63 S 18 30 29.59 1002 10 16.0934 0 0
11:55 pm 23:55 Clear 70 21 57 14 64 64 S 16 26 29.59 1002 10 16.0934 0 0

Powered by AerisWeather